Current weather by "City, St" or "zip code"  
 
Advertise Here

Current Conditions: Lewisburg / Greenbrier, WV

Clear


77.0 F

Last Updated on Aug 4 2020, 5:55 pm EDT
Humidity: 54%
Wind Speed: W 5.8 mph
Barometer 30.02 in
Dewpoint: 59.0 F
Visibility: 10.00 mi
Precip: --
Heat Index: NA
Wind Chill: NA
Current conditions at:

Lewisburg / Greenbrier, WV (KLWB)

Lat: 37.86667 Lon: 80.4

Local Radar Image active severe weather and emergency alerts image image weather storm and storm spotter reports image weather observation monitoring service image
Local
Radar
Active
Alerts
Storm Reports Obs
Monitoring

Sign-up For Email & Text Message Weather Alert Notification Services


Advertise Here

Observation History for Lewisburg / Greenbrier, WV


Time Wind
(mph)
Vis
(mi)
Weather Precip (in) Temperature (F) Relative
Humidity
Wind
Chill
(F)
Heat
Index
(F)
Pressure
Air Dwpt altimeter
(in)
sea level
(mb)
Rmks
5:55 pm EDT W 5.8 10.00 Clear -- 77.0 59.0 54% NA NA 30.02 M
4:55 pm EDT NW 6.9 10.00 Partly Cloudy -- 79.0 59.0 51% NA NA 30.02 M
3:51 pm EDT W 4.6 10.00 Partly Cloudy -- 77.0 62.6 61% NA NA 30.02 M
2:55 pm EDT W 5.8 10.00 Mostly Cloudy -- 77.0 62.6 61% NA NA 30.05 M
1:55 pm EDT W 9.2 10.00 Overcast -- 75.0 62.6 65% NA NA 30.01 M
12:55 pm EDT W 9.2 10.00 Mostly Cloudy -- 77.0 62.6 61% NA NA 30.00 M
11:51 am EDT NW 10.4 G 17.3 10.00 Mostly Cloudy -- 73.0 62.6 69% NA NA 29.99 M
10:53 am EDT W 5.8 10.00 Mostly Cloudy -- 72.0 66.2 83% NA NA 29.98 M
9:57 am EDT W 9.2 10.00 Mostly Cloudy -- 72.0 66.2 83% NA NA 29.98 M
8:57 am EDT W 5.8 10.00 Mostly Cloudy -- 66.0 66.2 100% NA NA 29.97 M
7:55 am EDT N 0.0 5.00 Fog/Mist -- 64.0 63.5 100% NA NA 29.96 M
6:55 am EDT N 0.0 0.15 Fog -- 62.0 61.9 100% NA NA 29.94 M
6:35 am EDT N 0.0 3.00 Fog/Mist -- 63.0 62.6 100% NA NA 29.94 M
5:55 am EDT N 0.0 5.00 Fog/Mist -- 63.0 63.3 100% NA NA 29.93 M
4:55 am EDT N 0.0 10.00 Mostly Cloudy -- 65.0 65.5 100% NA NA 29.94 M
4:35 am EDT N 0.0 10.00 Overcast -- 66.0 65.8 100% NA NA 29.94 M
3:55 am EDT N 0.0 10.00 Overcast -- 66.0 65.8 100% NA NA 29.95 M
2:55 am EDT N 0.0 10.00 Overcast -- 66.0 65.7 100% NA NA 29.98 M
1:55 am EDT N 0.0 10.00 Overcast -- 66.0 65.8 99% NA NA 30.00 M
12:55 am EDT N 0.0 10.00 Overcast -- 66.0 66.2 99% NA NA 30.03 M
12:35 am EDT N 0.0 10.00 Overcast -- 67.0 66.6 99% NA NA 30.04 M
11:55 pm EDT N 0.0 10.00 Overcast -- 67.0 66.4 99% NA NA 30.05 M
10:55 pm EDT N 0.0 10.00 Overcast -- 67.0 66.2 97% NA NA 30.06 M
10:35 pm EDT N 0.0 10.00 Overcast -- 68.0 66.2 95% NA NA 30.07 M

Regional Weather Observation


Beckley, Raleigh County Memorial Airport, WV (KBKW)

Overcast
73.0 F

Virginia Tech Airport, VA (KBCB)

Overcast
77.0 F

Hot Springs / Ingalls, VA (KHSP)

Fair
76.0 F

Dublin / New River Valley, VA (KPSK)

Overcast
79.0 F

Charleston, Yeager Airport, WV (KCRW)

Partly Cloudy
82.0 F

Bluefield, Mercer County Airport, WV (KBLF)

Light Rain
71.0 F